Find Kosmos-2299

NORAD ID: 23441 Int'l Des: 1994-086 Owner: VKS Country: RU operational
LEOCIRCULARPOLAR

Live-Position

3D-Globus wird geladen...

Über Kosmos-2299

Beschreibung wird geladen...

Nächste Überflüge

Passes for default location (London). Set your location on the main map for personalized predictions.

Höhenverlauf

Loading altitude history...

Zweizeiliger Elementsatz

1 23441U 94086A 26120.60707399 .00000050 00000-0 21547-3 0 9990
2 23441 82.5690 327.3681 0006606 314.2488 45.8061 12.63797461445692
Epoch: 30. Apr. 2026 • Age: 5 hours

Aktueller Status

Höhe 1413.6 km
Geschwindigkeit 7.15 km/s
Subsatellitenpunkt 13.16°N, 1.98°W
Startdatum 26. Dez. 1994
Alter 31.3 years
Typ other

Technische Details

Klassifizierung Payload
Masse 225.00 kg
Trockenmasse 225.00 kg
Gesamtmasse 225.00 kg
Länge 1.60 m
Durchmesser 0.80 m
Spannweite 7.00 m
Form Cyl + Ant
Hersteller NPOPMR
Bus-Typ Strela-3
Phasenstatus In Orbit
Besitzer/Staat VKS/RU

Most Searched